User: anonymous   Login
Location: Passau
(48.5830°N, 13.4830°E)
Time: 15:30:00
(UTC+02:00)
Language:

Explorer 11/Cluster Stage 4 - Orbit

View from above orbital plane
View from above orbital plane
View from above satellite
View from above satellite

Ground track
Ground track

The orbit data is extracted from the following two-line orbital elements,

1 00107U 61013A   21213.82389594  .00000411  00000-0  32224-4 0  9999
2 00107  28.7927  23.3117 0545541 253.5082 100.4886 14.09271798 24169
Epoch (UTC): 01 August 2021 19:46:24
Eccentricity: 0.0545541
inclination: 28.7927°
perigee height: 467 km
apogee height: 1257 km
right ascension of ascending node: 23.3117°
argument of perigee: 253.5082°
revolutions per day: 14.09271798
mean anomaly at epoch: 100.4886°
orbit number at epoch: 2416

The dashed part of the orbit path shows where the satellite is in the earth's shadow,  

DLR